Wadesboro, NC

2:59 PM EST on January 20, 2017 (GMT -0500)
Anson County

Weather History for KAFP - January, 2013

Change the Weather History Date:

Thursday, January 17, 2013

  Actual Average (KCLT) Record (KCLT)
Temperature  
Mean Temperature 46 °F -  
Max Temperature 53 °F 48 °F 75 °F (1943)
Min Temperature 38 °F 28 °F 5 °F (1977)
Degree Days  
Heating Degree Days 19    
Moisture  
Dew Point 49 °F    
Average Humidity 95    
Maximum Humidity 97    
Minimum Humidity 90    
Precipitation  
Precipitation 0.98 in - - ()
Sea Level Pressure  
Sea Level Pressure 29.93 in    
Wind  
Wind Speed 4 mph (NNE)    
Max Wind Speed 17 mph    
Max Gust Speed 26 mph    
Visibility 5 miles    
Events Rain    
Averages and records for this station are not official NWS values.
T = Trace of Precipitation, MM = Missing Value Source: NWS Daily Summary

Daily Weather History Graph

Daily Weather History Graph

Search for Another Location

Airport or City:

Trip Planner

Search our weather history database for the weather conditions in past years. The results will help you decide how hot, cold, wet, or windy it might be!

Date:

Astronomy

Jan. 17, 2013 Rise Set
Actual Time 7:27 AM EST 5:34 PM EST
Civil Twilight 6:59 AM EST 6:01 PM EST
Nautical Twilight 6:28 AM EST 6:32 PM EST
Astronomical Twilight 5:58 AM EST 7:02 PM EST
Moon 10:50 AM EST (1/17) No Moon Set
Length of Visible Light 11h 01m
Length of Day
10h 06m
Waxing Crescent, 37% of the Moon is Illuminated
Jan 17
Waxing Crescent
Jan 18
First Quarter
Jan 26
Full
Feb 3
Last Quarter
Feb 10
New

Hourly Weather History & Observations

Time (EST) Temp. Windchill Dew Point Humidity Pressure Visibility Wind Dir Wind Speed Gust Speed Precip Events Conditions
12:15 AM 51.8 °F - 50.9 °F 97% 29.98 in 3.0 mi Calm Calm - 0.02 in Rain Light Rain
12:35 AM 51.8 °F - 50.9 °F 97% 29.98 in 3.0 mi Calm Calm - 0.03 in   Drizzle
12:55 AM 51.8 °F - 50.9 °F 97% 29.98 in 2.5 mi Calm Calm - 0.07 in Rain Rain
1:35 AM 51.8 °F - 50.9 °F 97% 29.98 in 2.5 mi Calm Calm - 0.04 in Rain Rain
1:55 AM 51.8 °F - 51.1 °F 97% 29.98 in 3.0 mi Calm Calm - 0.05 in Rain Rain
2:15 AM 51.8 °F - 50.9 °F 97% 29.97 in 2.5 mi Calm Calm - 0.01 in   Drizzle
2:35 AM 51.8 °F - 50.9 °F 97% 29.97 in 2.5 mi Calm Calm - 0.03 in Rain Rain
2:55 AM 51.8 °F - 50.9 °F 97% 29.96 in 3.0 mi Calm Calm - 0.05 in Rain Heavy Rain
3:15 AM 51.8 °F - 50.9 °F 97% 29.96 in 3.0 mi Calm Calm - N/A   Drizzle
3:35 AM 51.8 °F - 50.9 °F 97% 29.95 in 3.0 mi Calm Calm - 0.02 in Rain Rain
3:55 AM 51.8 °F - 50.9 °F 97% 29.95 in 2.0 mi Calm Calm - 0.04 in Rain Rain
4:35 AM 51.8 °F - 50.9 °F 97% 29.95 in 5.0 mi Calm Calm - N/A   Overcast
4:55 AM 52.0 °F - 51.1 °F 97% 29.94 in 2.0 mi Calm Calm - 0.01 in   Drizzle
5:15 AM 52.2 °F - 51.3 °F 97% 29.93 in 4.0 mi Calm Calm - N/A   Light Drizzle
5:35 AM 52.0 °F - 51.1 °F 97% 29.93 in 7.0 mi Calm Calm - N/A   Overcast
5:55 AM 52.2 °F - 51.3 °F 97% 29.95 in 5.0 mi Calm Calm - 0.01 in   Drizzle
6:15 AM 52.2 °F - 51.3 °F 97% 29.95 in 5.0 mi Calm Calm - 0.01 in   Light Drizzle
6:35 AM 52.2 °F - 51.3 °F 97% 29.95 in 4.0 mi Calm Calm - 0.01 in   Drizzle
7:15 AM 52.7 °F - 51.8 °F 97% 29.96 in 3.0 mi NNE 3.5 mph - N/A   Drizzle
7:35 AM 53.1 °F - 52.3 °F 97% 29.97 in 7.0 mi NE 4.6 mph - 0.01 in   Light Drizzle
7:55 AM 53.6 °F - 52.7 °F 97% 29.97 in 10.0 mi NE 3.5 mph - 0.01 in Rain Light Rain
8:15 AM 53.4 °F - 52.3 °F 96% 29.98 in 7.0 mi NE 5.8 mph - 0.01 in Rain Light Rain
8:35 AM 53.1 °F - 52.0 °F 96% 29.99 in 10.0 mi NE 8.1 mph - 0.03 in Rain Light Rain
8:55 AM 52.9 °F - 51.6 °F 95% 29.98 in 10.0 mi NE 8.1 mph - 0.03 in   Overcast
9:15 AM 52.7 °F - 51.1 °F 94% 29.99 in 10.0 mi NE 8.1 mph - N/A   Overcast
9:35 AM 52.2 °F - 50.9 °F 95% 29.98 in 7.0 mi NE 11.5 mph - 0.01 in Rain Light Rain
9:55 AM 52.0 °F - 50.5 °F 95% 29.99 in 5.0 mi ENE 5.8 mph - 0.04 in Rain Light Rain
10:15 AM 51.8 °F - 50.2 °F 94% 29.99 in 7.0 mi NNE 6.9 mph - N/A   Drizzle
10:35 AM 51.6 °F - 50.0 °F 94% 29.98 in 7.0 mi NNE 5.8 mph - 0.03 in Rain Heavy Rain
10:55 AM 51.4 °F - 50.0 °F 95% 29.97 in 4.0 mi NNE 5.8 mph - 0.07 in Rain Rain
11:15 AM 51.3 °F - 49.6 °F 94% 29.96 in 7.0 mi NNE 6.9 mph - 0.01 in Rain Rain
11:35 AM 51.3 °F - 49.6 °F 94% 29.94 in 10.0 mi NE 8.1 mph - 0.01 in   Light Drizzle
11:55 AM 51.3 °F - 49.6 °F 94% 29.92 in 7.0 mi NNE 5.8 mph - 0.02 in   Light Drizzle
12:15 PM 51.3 °F - 49.6 °F 94% 29.91 in 5.0 mi NNE 4.6 mph - N/A   Overcast
12:35 PM 51.4 °F - 50.0 °F 95% 29.90 in 3.0 mi North 3.5 mph - N/A   Overcast
12:55 PM 51.4 °F - 50.0 °F 95% 29.88 in 3.0 mi North 4.6 mph - N/A   Overcast
1:15 PM 51.4 °F - 50.0 °F 95% 29.86 in 2.5 mi NNE 9.2 mph - N/A   Overcast
1:35 PM 51.4 °F - 50.0 °F 95% 29.84 in 3.0 mi NE 6.9 mph - N/A   Overcast
1:55 PM 51.8 °F - 50.2 °F 94% 29.84 in 2.5 mi NE 5.8 mph - N/A   Overcast
2:15 PM 51.8 °F - 50.4 °F 95% 29.81 in 2.0 mi NNE 8.1 mph - N/A   Overcast
2:35 PM 51.8 °F - 50.4 °F 95% 29.80 in 2.0 mi NNE 8.1 mph - N/A   Overcast
2:55 PM 51.8 °F - 50.4 °F 95% 29.81 in 2.0 mi North 6.9 mph - N/A   Overcast
3:15 PM 51.1 °F - 50.0 °F 96% 29.80 in 2.0 mi NNE 5.8 mph - N/A   Overcast
3:35 PM 51.1 °F - 50.0 °F 96% 29.79 in 3.0 mi NNE 9.2 mph 17.3 mph N/A   Overcast
3:55 PM 51.1 °F - 49.6 °F 95% 29.78 in 2.0 mi NNE 15.0 mph 20.7 mph N/A   Overcast
4:15 PM 51.1 °F - 49.6 °F 95% 29.79 in 4.0 mi NNE 11.5 mph 18.4 mph N/A Rain Light Rain
4:35 PM 50.9 °F - 49.3 °F 94% 29.78 in 4.0 mi NNE 13.8 mph 19.6 mph 0.02 in Rain Rain
4:55 PM 50.5 °F - 49.1 °F 95% 29.80 in 5.0 mi NNE 11.5 mph - 0.02 in Rain Light Rain
5:55 PM 49.8 °F - 48.0 °F 94% 29.84 in 3.0 mi WNW 6.9 mph 17.3 mph 0.16 in Rain Heavy Rain
6:35 PM 47.5 °F - 45.7 °F 93% 29.86 in 3.0 mi North 12.7 mph 21.9 mph 0.23 in Rain Heavy Rain
7:35 PM 45.9 °F 38.8 °F 44.1 °F 93% 29.87 in 10.0 mi NNW 17.3 mph 20.7 mph 0.05 in Rain Light Rain
8:15 PM 44.8 °F 38.3 °F 42.6 °F 92% 29.91 in 10.0 mi North 13.8 mph 21.9 mph N/A Rain Light Rain
8:55 PM 42.8 °F 36.2 °F 40.3 °F 91% 29.98 in 7.0 mi North 12.7 mph 26.5 mph 0.01 in Rain Rain
9:15 PM 42.4 °F 37.0 °F 39.7 °F 90% 30.02 in 10.0 mi North 9.2 mph 25.3 mph 0.01 in Rain Light Rain
9:55 PM 40.8 °F 33.3 °F 38.3 °F 91% 30.08 in 3.0 mi North 13.8 mph 20.7 mph 0.05 in Rain Light Rain
10:15 PM 39.6 °F 32.5 °F 36.9 °F 90% 30.11 in 7.0 mi North 11.5 mph 24.2 mph 0.01 in Rain Rain
10:35 PM 39.2 °F 30.8 °F 36.5 °F 90% 30.12 in 3.0 mi NW 15.0 mph 19.6 mph 0.04 in Rain Rain
10:55 PM 38.3 °F 30.5 °F 36.0 °F 91% 30.16 in 4.0 mi NW 12.7 mph - 0.05 in Rain Rain